Regional Weather Roundup
Issued by NWS

Home | Current Version | Previous Version | Text Only | Print | Product List | Glossary Off
Versions: 1 2 3 4 5 6 7 8 9 10 11 12 13 14 15 16 17 18 19 20 21 22 23 24 25 26 27 28 29 30 31 32 33 34 35 36 37 38 39 40 41 42 43 44 45 46 47 48 49 50

000
ASUS43 KLSX 271110
RWRMO

WEATHER SUMMARY FOR MISSOURI
NATIONAL WEATHER SERVICE SPRINGFIELD MO
600 AM CDT TUE SEP 27 2016

NOTE: "FAIR" INDICATES FEW OR NO CLOUDS BELOW 12,000 FEET WITH NO
       SIGNIFICANT WEATHER AND/OR OBSTRUCTIONS TO VISIBILITY.
       CURRENT SKY AND/OR WEATHER CONDITIONS ARE NOT AVAILABLE FOR
       CHILLICOTHE AND FARMINGTON.

MOZ001>031-035>038-043-044-053-054-271200-
...NORTHERN AND WESTERN MISSOURI...

CITY           SKY/WX    TMP DP  RH WIND       PRES   REMARKS
KANSAS CTY INT CLEAR     51  45  79 SW8       30.05F
KANSAS C DTWN  CLEAR     57  46  66 SW6       30.05F
LEE`S SUMMIT   CLEAR     55  47  74 MISG      30.07S
ST JOSEPH      CLEAR     51  48  89 S5        30.04F
CHILLICOTHE      N/A     49  47  93 CALM      30.04S
KIRKSVILLE     CLEAR     50  46  86 W5        30.01S

$$
MOZ066>068-077>081-088>096-101>105-271200-
...SOUTHWEST MISSOURI...

CITY           SKY/WX    TMP DP  RH WIND       PRES   REMARKS
SPRINGFIELD    CLEAR     48  43  82 S3        30.10S
JOPLIN         CLEAR     50  45  83 CALM      30.12S
BRANSON        CLEAR     50  45  81 SW6       30.12S

$$
MOZ032>034-039>042-045>050-055>058-069>072-271200-
...CENTRAL MISSOURI...

CITY           SKY/WX    TMP DP  RH WIND       PRES   REMARKS
COLUMBIA       CLEAR     55  44  66 W7        30.04S
JEFFERSON CITY CLEAR     51  48  89 CALM      30.05S
ROLLA          CLEAR     49  44  83 SW9       30.06S
SEDALIA        CLEAR     54  45  71 SW9       30.06F
WHITEMAN AFB   CLEAR     54  46  73 SW7       30.05S
OSAGE BEACH    FOG       46  45  93 CALM      30.08F VSB 1/2

$$
MOZ051-052-059>065-271200-
...EAST CENTRAL MISSOURI...

CITY           SKY/WX    TMP DP  RH WIND       PRES   REMARKS
ST LOUIS INTL  CLEAR     56  44  64 W6        30.03S
SPIRIT OF STL  CLEAR     51  46  83 W7        30.02F
ST CHARLES     CLEAR     49  47  93 S6        30.01F

$$
MOZ072>076-082>087-097>100-106>115-271200-
...SOUTH CENTRAL AND SOUTHEAST MISSOURI...

CITY           SKY/WX    TMP DP  RH WIND       PRES   REMARKS
CAPE GIRARDEAU FOG       44  43  96 CALM      30.06S VSB 1/2
FARMINGTON     CLEAR     46  44  93 CALM      30.07F
POPLAR BLUFF   CLEAR     50  48  93 CALM      30.06F
WEST PLAINS    CLEAR     50  41  71 W3        30.11S

$$




USA.gov is the U.S. government's official web portal to all federal, state and local government web resources and services.